Total_Precipitation_Accumulation
0.56 0.72 0.45 0.34 0.31 0.34 0.28 0.13 0.14 0.12 0.13 0.16 0.15 0.19 0.23 0.27 0.43 0.66 0.84 1.00 1.18 1.35 1.62 1.90 1.99 2.09 2.26 2.24 2.29 2.45 2.58 2.69 2.66 1.72 1.37 1.27 1.25 1.25 1.24 1.14 1.19 1.17 1.25
0.51 0.58 0.73 0.56 0.46 0.41 0.39 0.21 0.17 0.18 0.13 0.15 0.13 0.11 0.11 0.14 0.16 0.18 0.23 0.27 0.34 0.42 0.58 0.75 0.82 0.96 1.21 1.42 1.66 1.82 2.16 2.62 3.05 2.42 1.77 1.61 1.48 1.33 1.12 0.88 0.80 0.85 0.89
0.58 0.52 0.67 0.89 0.71 0.62 0.44 0.35 0.24 0.27 0.19 0.18 0.15 0.11 0.10 0.10 0.09 0.12 0.14 0.19 0.24 0.31 0.37 0.41 0.44 0.47 0.54 0.58 0.69 0.87 1.03 1.18 1.42 1.39 1.09 1.00 1.02 1.15 1.26 1.18 1.04 0.95 0.88
0.68 0.62 0.56 0.88 0.87 0.75 0.55 0.50 0.40 0.28 0.23 0.15 0.21 0.13 0.09 0.11 0.13 0.14 0.13 0.12 0.11 0.11 0.13 0.15 0.22 0.31 0.43 0.62 0.86 0.96 0.92 0.80 0.72 0.65 0.60 0.53 0.50 0.54 0.64 0.68 0.65 0.57 0.49
0.98 0.89 0.71 0.52 0.76 0.64 0.47 0.61 0.51 0.28 0.24 0.13 0.23 0.25 0.19 0.18 0.22 0.22 0.21 0.20 0.21 0.25 0.26 0.31 0.37 0.49 0.57 0.53 0.45 0.36 0.37 0.41 0.43 0.47 0.43 0.33 0.28 0.25 0.27 0.29 0.33 0.39 0.44
1.33 1.02 0.84 0.48 0.51 0.57 0.50 0.50 0.44 0.36 0.40 0.25 0.22 0.23 0.21 0.22 0.38 0.32 0.27 0.27 0.29 0.31 0.34 0.37 0.41 0.50 0.40 0.39 0.30 0.26 0.22 0.27 0.26 0.22 0.17 0.12 0.10 0.12 0.16 0.24 0.35 0.48 0.49
1.88 1.46 0.99 0.57 0.52 0.47 0.41 0.43 0.33 0.36 0.39 0.36 0.31 0.26 0.21 0.16 0.29 0.24 0.22 0.20 0.23 0.25 0.25 0.23 0.20 0.19 0.17 0.13 0.19 0.21 0.25 0.23 0.19 0.14 0.10 0.07 0.07 0.08 0.18 0.26 0.27 0.33 0.24
1.90 1.68 1.38 1.02 0.86 0.75 0.61 0.58 0.41 0.39 0.39 0.33 0.33 0.40 0.49 0.55 0.51 0.36 0.29 0.21 0.19 0.17 0.15 0.13 0.09 0.04 0.03 0.03 0.05 0.11 0.09 0.11 0.16 0.19 0.17 0.17 0.21 0.25 0.32 0.45 0.34 0.28 0.16
1.88 1.88 1.62 1.25 1.11 1.20 1.22 1.02 0.83 0.79 0.73 0.81 0.66 0.56 0.66 0.76 0.62 0.48 0.31 0.23 0.18 0.14 0.07 0.03 0.02 0.01 0.03 0.05 0.06 0.03 0.01 0.01 0.09 0.18 0.29 0.41 0.49 0.51 0.41 0.42 0.51 0.54 0.40
1.40 1.44 1.41 1.36 1.06 1.01 0.88 0.93 0.81 0.70 0.71 0.69 0.72 0.59 0.54 0.49 0.37 0.28 0.21 0.14 0.08 0.04 0.03 0.02 0.03 0.03 0.05 0.08 0.10 0.06 0.08 0.02 0.06 0.08 0.11 0.19 0.28 0.33 0.39 0.30 0.28 0.57 0.54
1.37 1.17 1.04 0.94 1.03 0.88 0.83 0.66 0.68 0.58 0.44 0.41 0.36 0.32 0.22 0.13 0.06 0.05 0.05 0.05 0.04 0.05 0.03 0.02 0.02 0.04 0.09 0.13 0.14 0.09 0.13 0.12 0.10 0.08 0.06 0.11 0.18 0.28 0.33 0.35 0.37 0.55 0.84
0.69 0.62 0.63 0.45 0.45 0.52 0.34 0.35 0.31 0.26 0.20 0.12 0.06 0.04 0.03 0.03 0.05 0.07 0.07 0.07 0.05 0.04 0.04 0.03 0.02 0.08 0.13 0.11 0.12 0.11 0.15 0.17 0.10 0.06 0.07 0.08 0.15 0.22 0.28 0.36 0.49 0.61 0.63
0.18 0.16 0.10 0.06 0.06 0.07 0.05 0.03 0.05 0.04 0.02 0.02 0.02 0.02 0.02 0.02 0.03 0.08 0.07 0.07 0.10 0.09 0.04 0.07 0.10 0.11 0.11 0.08 0.08 0.11 0.11 0.09 0.09 0.13 0.10 0.09 0.11 0.16 0.31 0.51 0.65 0.74 0.86
0.08 0.08 0.05 0.05 0.06 0.04 0.02 0.01 0.01 0.01 0.02 0.02 0.03 0.04 0.04 0.06 0.06 0.06 0.09 0.09 0.11 0.10 0.07 0.10 0.14 0.13 0.12 0.10 0.11 0.11 0.09 0.10 0.17 0.24 0.19 0.14 0.19 0.29 0.43 0.50 0.67 0.65 0.89
0.07 0.04 0.03 0.02 0.03 0.02 0.01 0.02 0.01 0.01 0.03 0.02 0.02 0.03 0.05 0.06 0.08 0.18 0.21 0.19 0.21 0.28 0.39 0.25 0.18 0.12 0.10 0.11 0.11 0.12 0.19 0.26 0.33 0.31 0.39 0.43 0.40 0.40 0.40 0.39 0.62 0.81 0.98
0.08 0.04 0.04 0.03 0.02 0.03 0.04 0.05 0.07 0.06 0.06 0.06 0.06 0.05 0.04 0.07 0.11 0.18 0.21 0.24 0.29 0.40 0.46 0.29 0.17 0.13 0.12 0.13 0.18 0.23 0.28 0.36 0.38 0.47 0.54 0.55 0.63 0.62 0.56 0.56 0.62 0.77 0.75
0.18 0.15 0.16 0.18 0.13 0.11 0.09 0.07 0.07 0.11 0.15 0.11 0.08 0.09 0.09 0.09 0.14 0.18 0.22 0.26 0.33 0.49 0.41 0.15 0.11 0.13 0.15 0.17 0.24 0.31 0.32 0.27 0.40 0.62 0.71 0.71 0.78 0.82 0.83 0.74 0.57 0.69 0.65
0.29 0.42 0.33 0.31 0.35 0.35 0.34 0.30 0.24 0.18 0.14 0.11 0.16 0.22 0.17 0.17 0.18 0.21 0.26 0.38 0.32 0.27 0.20 0.14 0.10 0.12 0.19 0.28 0.32 0.39 0.44 0.46 0.52 0.56 0.66 0.67 0.82 1.01 0.88 0.68 0.61 0.71 0.75
0.10 0.12 0.17 0.19 0.22 0.29 0.26 0.26 0.27 0.29 0.28 0.24 0.21 0.28 0.25 0.27 0.33 0.36 0.37 0.35 0.18 0.10 0.09 0.16 0.13 0.16 0.28 0.37 0.43 0.54 0.65 0.66 0.62 0.77 0.69 0.67 0.64 1.01 0.87 0.58 0.67 0.61 0.76
0.04 0.09 0.08 0.05 0.07 0.11 0.12 0.16 0.19 0.24 0.31 0.31 0.27 0.22 0.38 0.49 0.32 0.18 0.20 0.22 0.18 0.13 0.11 0.21 0.24 0.31 0.40 0.50 0.60 0.65 0.73 0.61 0.60 0.55 0.49 0.54 0.61 0.83 0.94 0.76 0.68 0.83 0.60
0.03 0.06 0.14 0.09 0.05 0.06 0.10 0.12 0.15 0.22 0.23 0.22 0.22 0.31 0.53 0.53 0.33 0.21 0.22 0.25 0.25 0.26 0.30 0.41 0.42 0.44 0.51 0.64 0.75 0.78 0.67 0.49 0.41 0.52 0.54 0.53 0.64 0.85 0.60 0.68 0.70 0.69 0.65
0.03 0.04 0.06 0.07 0.07 0.09 0.12 0.15 0.20 0.22 0.20 0.20 0.17 0.32 0.59 0.45 0.19 0.20 0.23 0.24 0.29 0.39 0.48 0.69 0.70 0.48 0.51 0.75 0.81 0.82 0.63 0.48 0.40 0.53 0.56 0.54 0.67 0.66 0.63 0.65 0.59 0.71 0.72
0.05 0.08 0.09 0.09 0.10 0.17 0.21 0.14 0.15 0.17 0.18 0.18 0.20 0.25 0.34 0.32 0.22 0.21 0.25 0.32 0.45 0.50 0.48 0.67 0.78 0.61 0.40 0.50 0.72 0.96 0.99 0.54 0.49 0.74 0.98 0.74 0.62 0.63 0.75 0.85 0.74 0.78 0.60
0.13 0.12 0.11 0.12 0.16 0.23 0.22 0.21 0.22 0.32 0.32 0.27 0.26 0.26 0.24 0.26 0.28 0.26 0.31 0.41 0.45 0.46 0.54 0.59 0.58 0.54 0.53 0.58 0.65 0.69 0.77 0.71 0.96 0.97 1.22 1.45 1.09 0.89 0.97 0.88 0.67 0.61 0.61
0.23 0.26 0.26 0.27 0.33 0.36 0.34 0.32 0.28 0.31 0.34 0.31 0.28 0.28 0.27 0.33 0.35 0.34 0.37 0.49 0.62 0.59 0.46 0.46 0.51 0.54 0.59 0.64 0.63 0.60 0.70 0.81 1.11 1.26 1.55 1.42 1.18 0.91 0.87 0.86 0.64 0.66 0.64
0.37 0.44 0.43 0.40 0.40 0.40 0.44 0.47 0.39 0.35 0.35 0.31 0.33 0.37 0.38 0.42 0.44 0.49 0.56 0.62 0.57 0.51 0.46 0.50 0.51 0.58 0.63 0.63 0.59 0.68 0.76 0.78 0.78 0.81 1.11 1.33 1.16 0.98 0.92 0.99 0.81 0.90 0.87